Molokai, HI

10:23 PM HST on October 17, 2017 (GMT -1000)
Molokai

Weather History for PHMK - April, 2013

Change the Weather History Date:

Sunday, April 7, 2013

  Actual Average Record
Temperature  
Mean Temperature 72 °F -  
Max Temperature 81 °F 78 °F 85 °F (1981)
Min Temperature 64 °F 64 °F 52 °F (1987)
Cooling Degree Days 8    
Growing Degree Days 22 (Base 50)    
Moisture  
Dew Point 64 °F    
Average Humidity 80    
Maximum Humidity 96    
Minimum Humidity 60    
Precipitation  
Precipitation 0.00 in - - ()
Sea Level Pressure  
Sea Level Pressure 30.15 in    
Wind  
Wind Speed 5 mph (NNE)    
Max Wind Speed 14 mph    
Max Gust Speed 21 mph    
Visibility 10 miles    
Events      
Averages and records for this station are not official NWS values.
T = Trace of Precipitation, MM = Missing Value Source: NWS Daily Summary

Daily Weather History Graph

Daily Weather History Graph

Search for Another Location

Airport or City:

Trip Planner

Search our weather history database for the weather conditions in past years. The results will help you decide how hot, cold, wet, or windy it might be!

Date:

Astronomy

Apr. 07, 2013 Rise Set
Actual Time 6:15 AM HST 6:45 PM HST
Civil Twilight 5:53 AM HST 7:07 PM HST
Nautical Twilight 5:27 AM HST 7:33 PM HST
Astronomical Twilight 5:00 AM HST 8:00 PM HST
Moon 4:22 AM HST (4/7) 4:42 PM HST (4/7)
Length of Visible Light 13h 14m
Length of Day
12h 29m
Waning Crescent, 7% of the Moon is Illuminated
Apr 7
Waning Crescent
Apr 9
New
Apr 18
First Quarter
Apr 25
Full
May 2
Last Quarter

Hourly Weather History & Observations

Time (HST) Temp. Heat Index Dew Point Humidity Pressure Visibility Wind Dir Wind Speed Gust Speed Precip Events Conditions
12:54 AM 66.9 °F - 64.0 °F 90% 30.17 in 10.0 mi West 4.6 mph - N/A   Clear
1:54 AM 64.0 °F - 63.0 °F 96% 30.15 in 10.0 mi East 4.6 mph - N/A   Clear
2:54 AM 64.9 °F - 63.0 °F 93% 30.14 in 10.0 mi Calm Calm - N/A   Clear
3:54 AM 66.0 °F - 63.0 °F 90% 30.13 in 10.0 mi ENE 6.9 mph - N/A   Clear
4:16 AM 64.4 °F - 62.6 °F 94% 30.12 in 10.0 mi ENE 5.8 mph - N/A   Mostly Cloudy
4:47 AM 66.2 °F - 64.4 °F 94% 30.14 in 10.0 mi ENE 4.6 mph - N/A   Scattered Clouds
4:54 AM 66.0 °F - 64.0 °F 93% 30.15 in 10.0 mi ENE 4.6 mph - N/A   Mostly Cloudy
5:54 AM 66.9 °F - 64.0 °F 90% 30.17 in 10.0 mi Calm Calm - N/A   Scattered Clouds
6:54 AM 66.9 °F - 64.9 °F 93% 30.18 in 10.0 mi Calm Calm - N/A   Scattered Clouds
7:54 AM 73.0 °F - 66.9 °F 81% 30.20 in 10.0 mi North 5.8 mph - N/A   Scattered Clouds
8:54 AM 75.0 °F - 66.9 °F 76% 30.20 in 10.0 mi NNE 5.8 mph - N/A   Scattered Clouds
9:54 AM 77.0 °F - 66.0 °F 69% 30.20 in 10.0 mi NNE 10.4 mph 20.7 mph N/A   Scattered Clouds
10:54 AM 75.9 °F - 66.0 °F 71% 30.19 in 10.0 mi SE 13.8 mph - N/A   Mostly Cloudy
11:54 AM 78.1 °F - 63.0 °F 60% 30.18 in 10.0 mi Variable 5.8 mph - N/A   Scattered Clouds
12:54 PM 79.0 °F - 64.9 °F 62% 30.14 in 10.0 mi North 8.1 mph - N/A   Scattered Clouds
1:54 PM 81.0 °F 83.3 °F 66.9 °F 62% 30.12 in 10.0 mi ENE 11.5 mph 18.4 mph N/A   Scattered Clouds
2:54 PM 78.1 °F - 66.0 °F 66% 30.12 in 10.0 mi NE 8.1 mph - N/A   Scattered Clouds
3:54 PM 77.0 °F - 64.9 °F 66% 30.11 in 10.0 mi NNW 5.8 mph - N/A   Scattered Clouds
4:54 PM 80.1 °F 82.1 °F 66.0 °F 62% 30.10 in 10.0 mi North 5.8 mph - N/A   Scattered Clouds
5:54 PM 75.0 °F - 64.9 °F 71% 30.11 in 10.0 mi NNE 5.8 mph - N/A   Scattered Clouds
6:54 PM 72.0 °F - 64.9 °F 78% 30.12 in 10.0 mi NE 5.8 mph - N/A   Partly Cloudy
7:54 PM 71.1 °F - 64.0 °F 78% 30.12 in 10.0 mi NNE 9.2 mph - N/A   Clear
8:54 PM 69.1 °F - 62.1 °F 78% 30.15 in 10.0 mi Calm Calm - N/A   Clear
9:54 PM 66.9 °F - 63.0 °F 87% 30.15 in 10.0 mi NW 3.5 mph - N/A   Clear
10:54 PM 64.9 °F - 62.1 °F 90% 30.15 in 10.0 mi WSW 3.5 mph - N/A   Clear
11:54 PM 64.9 °F - 61.0 °F 87% 30.12 in 10.0 mi North 6.9 mph - N/A   Clear